SCD 1 1 22490U 93009B 25349.86607961 .00000517 00000+0 90830-4 0 9990 2 22490 24.9692 259.3886 0041926 358.1909 58.0200 14.46001300734557 TECHSAT 1B (GO-32) 1 25397U 98043D 25349.93806474 .00000092 00000+0 59974-4 0 9992 2 25397 98.9922 333.2240 0001981 52.2495 307.8863 14.24377985425242 SCD 2 1 25504U 98060A 25349.73824127 .00000436 00000+0 70985-4 0 9991 2 25504 24.9938 123.4064 0016765 345.4677 149.7184 14.45424982433753 DLR-TUBSAT 1 25757U 99029B 25349.97251522 .00000132 00000+0 44283-4 0 9991 2 25757 98.6565 334.5861 0014105 182.7828 177.3290 14.52358976406654 TERRA 1 25994U 99068A 25349.90600187 .00000462 00000+0 10357-3 0 9995 2 25994 97.9746 41.4743 0003602 88.3629 84.4744 14.60905450382843 MAROC-TUBSAT 1 27004U 01056D 25349.96129463 -.00000016 00000+0 35043-4 0 9994 2 27004 99.7912 158.4626 0019120 251.5474 231.2153 13.70253073201095 AQUA 1 27424U 02022A 25349.97106834 .00001024 00000+0 21484-3 0 9994 2 27424 98.4040 310.9026 0001209 114.3239 286.2663 14.61816755256507 IRS-P6 (RESOURCESAT-1) 1 28051U 03046A 25350.00004814 .00000089 00000+0 43611-4 0 9996 2 28051 98.2182 30.2561 0064320 170.9074 304.8131 14.36076201154233 SHIYAN-1 (SY-1) 1 28220U 04012A 25349.93660764 .00010375 00000+0 37983-3 0 9993 2 28220 97.8940 51.6639 0005452 313.0552 47.0229 15.28232207183051 AURA 1 28376U 04026A 25349.87181557 .00001024 00000+0 21884-3 0 9995 2 28376 98.3187 300.1129 0001291 93.5806 266.5542 14.60954081139443 IRS-P5 (CARTOSAT-1) 1 28649U 05017A 25349.90454687 .00001544 00000+0 16389-3 0 9991 2 28649 97.5496 16.1780 0001060 48.1123 312.0186 14.90417700116518 SINAH 1 1 28893U 05043D 25349.89456876 .00000432 00000+0 91675-4 0 9998 2 28893 98.2605 118.4602 0015482 127.7099 232.5510 14.63966015 73705 EROS B 1 29079U 06014A 25349.93738235 .00138414 00000+0 11710-2 0 9993 2 29079 97.3464 106.6654 0002829 310.8296 49.2720 15.69294671 91307 RESURS-DK 1 1 29228U 06021A 25349.74093218 .00002179 00000+0 13214-3 0 9991 2 29228 69.9335 94.0823 0006974 256.9262 103.1125 15.12179153 74834 ARIRANG-2 (KOMPSAT-2) 1 29268U 06031A 25350.00848885 .00000517 00000+0 10592-3 0 9995 2 29268 97.8262 178.3218 0013353 298.1200 213.7654 14.64497764 34669 LAPAN-TUBSAT 1 29709U 07001A 25349.94578681 .00001457 00000+0 17446-3 0 9997 2 29709 98.1259 340.1685 0013566 64.8879 295.3741 14.85679591 23947 HAIYANG-1B 1 31113U 07010A 25349.95068615 .00000122 00000+0 62067-4 0 9999 2 31113 98.3317 334.0962 0014121 28.9264 331.2699 14.30966132974423 COSMO-SKYMED 1 1 31598U 07023A 25349.99919802 .00003545 00000+0 32307-3 0 9992 2 31598 97.8834 175.4194 0001466 88.9185 271.2204 14.95790824 2395 TERRASAR-X 1 31698U 07026A 25349.48513314 .00001541 00000+0 76554-4 0 9995 2 31698 97.4453 354.8250 0001672 86.3192 273.8234 15.19146195 25337 WORLDVIEW-1 (WV-1) 1 32060U 07041A 25349.60613521 .00006507 00000+0 26564-3 0 9993 2 32060 97.3836 107.0465 0000846 113.8111 246.3216 15.24740329 14912 YAOGAN-3 1 32289U 07055A 25349.97305709 .00002273 00000+0 24221-3 0 9991 2 32289 97.8371 16.5693 0001361 77.1788 282.9581 14.89877126978574 COSMO-SKYMED 2 1 32376U 07059A 25350.00503900 .00000555 00000+0 76251-4 0 9993 2 32376 97.8804 171.2798 0001383 83.3146 276.8224 14.82146566974862 RADARSAT-2 1 32382U 07061A 25349.99403024 .00000197 00000+0 93487-4 0 9997 2 32382 98.5801 354.5371 0001120 85.7698 274.3613 14.29983294939778 CARTOSAT-2A 1 32783U 08021A 25349.98587885 .00001138 00000+0 16091-3 0 9997 2 32783 97.7932 39.7081 0011640 354.2768 5.8309 14.78945532951724 HUANJING 1A (HJ-1A) 1 33320U 08041A 25350.00137802 .00001797 00000+0 22449-3 0 9997 2 33320 97.6541 338.1640 0019938 24.1736 336.0410 14.83407664931242 HUANJING 1B (HJ-1B) 1 33321U 08041B 25349.96125282 .00001462 00000+0 18464-3 0 9991 2 33321 97.6401 341.8142 0038178 65.5438 294.9752 14.82832926931255 GEOEYE 1 1 33331U 08042A 25349.93510938 .00000550 00000+0 11234-3 0 9991 2 33331 98.1251 61.1758 0002743 271.6646 88.4243 14.64704604923321 THEOS 1 33396U 08049A 25349.99313127 .00000103 00000+0 68278-4 0 9991 2 33396 98.5869 47.9867 0001154 96.4492 263.6817 14.20097574891962 COSMO-SKYMED 3 1 33412U 08054A 25349.99229904 .00002897 00000+0 20606-3 0 9999 2 33412 97.8478 200.4384 0016312 161.9258 198.2551 15.05389461929366 YAOGAN-4 1 33446U 08061A 25349.77555249 .00001178 00000+0 15255-3 0 9999 2 33446 97.9181 279.8450 0013352 312.7719 47.2370 14.82692757918480 GOSAT (IBUKI) 1 33492U 09002A 25349.86517953 .00000837 00000+0 15601-3 0 9992 2 33492 98.0768 98.4247 0000952 93.5308 266.6005 14.67532099904575 DEIMOS-1 1 35681U 09041A 25349.97054586 .00001145 00000+0 17742-3 0 9998 2 35681 97.7144 150.4230 0002684 73.7443 286.4062 14.74960608879872 DUBAISAT-1 1 35682U 09041B 25349.91569066 .00001260 00000+0 19651-3 0 9996 2 35682 97.9792 120.5486 0009426 303.3623 56.6683 14.74612807878081 OCEANSAT-2 1 35931U 09051A 25349.97898920 -.00000151 00000+0 -77641-4 0 9998 2 35931 98.2220 350.2511 0016127 36.5739 323.6526 13.99623944853703 WORLDVIEW-2 (WV-2) 1 35946U 09055A 25349.93934059 .00000161 00000+0 67997-4 0 9990 2 35946 98.4787 60.9798 0005087 62.8181 297.3524 14.37725313849310 SMOS 1 36036U 09059A 25349.78901279 .00000359 00000+0 12839-3 0 9999 2 36036 98.4381 174.7923 0001098 83.8276 276.3038 14.39743719847060 YAOGAN-7 1 36110U 09069A 25349.94670551 .00000601 00000+0 90939-4 0 9995 2 36110 98.0298 231.6922 0023328 270.3510 89.5027 14.77737056862565 TANDEM-X 1 36605U 10030A 25349.48513373 .00001422 00000+0 70900-4 0 9999 2 36605 97.4447 354.8261 0001930 84.3748 275.7707 15.19144958858758 CARTOSAT-2B 1 36795U 10035A 25349.95828745 .00000670 00000+0 97993-4 0 9993 2 36795 97.7855 38.8842 0012986 66.9757 293.2822 14.78729293832779 YAOGAN-10 1 36834U 10038A 25350.01347498 .00001361 00000+0 16742-3 0 9990 2 36834 97.9144 9.8098 0001315 82.6289 0.7358 14.84619881830025 COSMO-SKYMED 4 1 37216U 10060A 25349.95019866 .00001055 00000+0 13901-3 0 9990 2 37216 97.8806 171.2249 0001416 81.6368 278.5006 14.82151449817428 RESOURCESAT-2 1 37387U 11015A 25349.88250267 .00000140 00000+0 83986-4 0 9999 2 37387 98.7875 53.4202 0006291 34.3241 325.8341 14.21598544760131 HAIYANG-2A 1 37781U 11043A 25349.97021618 .00000087 00000+0 12907-3 0 9998 2 37781 99.3381 350.8552 0001655 79.1424 280.9914 13.78835948721439 RASAT 1 37791U 11044D 25349.97844375 .00000473 00000+0 90941-4 0 9997 2 37791 98.0646 79.1877 0021786 55.3342 59.1513 14.67914473766309 SRMSAT 1 37841U 11058D 25349.65056470 .00000425 00000+0 86862-4 0 9998 2 37841 19.9717 90.3334 0011830 345.5596 152.0986 14.11512425731852 PLEIADES 1A 1 38012U 11076F 25349.96796786 .00000392 00000+0 94031-4 0 9994 2 38012 98.1820 62.6865 0001226 71.8729 33.9509 14.58564947745280 ZIYUAN 1-02C (ZY 1-02C) 1 38038U 11079A 25349.97536530 .00000533 00000+0 19037-3 0 9994 2 38038 98.4332 55.9294 0007308 129.8755 43.5961 14.38016443732871 ZIYUAN 3-1 (ZY 3-1) 1 38046U 12001A 25349.96648873 .00060184 00000+0 51963-3 0 9994 2 38046 97.1754 56.4608 0001579 335.4250 24.6937 15.69055925775477 ARIRANG-3 (KOMPSAT-3) 1 38338U 12025B 25349.96040546 .00000560 00000+0 12218-3 0 9999 2 38338 98.3326 304.5740 0005148 327.8579 32.2307 14.61717107724577 EXACTVIEW-1 (ADS-1B) 1 38709U 12039C 25349.90348854 .00000130 00000+0 75534-4 0 9997 2 38709 98.9638 98.3599 0010505 344.9870 15.0995 14.24909318696608 SPOT 6 1 38755U 12047A 25349.96230602 .00000309 00000+0 76045-4 0 9990 2 38755 98.1572 54.6877 0001192 98.7800 261.3534 14.58606466706344 PLEIADES 1B 1 39019U 12068A 25349.91314490 .00000428 00000+0 10182-3 0 9991 2 39019 98.1792 62.5145 0001200 83.9205 276.2131 14.58556424694132 GOKTURK 2 1 39030U 12073A 25349.97226838 .00000532 00000+0 85442-4 0 9992 2 39030 97.6896 191.4668 0001093 105.7821 254.3509 14.75296410697496 LANDSAT 8 1 39084U 13008A 25349.88384123 .00000398 00000+0 98404-4 0 9994 2 39084 98.2070 57.9109 0001074 90.3694 269.7627 14.57117070671204 SARAL 1 39086U 13009A 25349.94001431 .00000121 00000+0 60300-4 0 9990 2 39086 98.5502 173.8287 0002918 102.7484 257.4026 14.32758145669365 GAOFEN-1 1 39150U 13018A 25349.95487470 .00000654 00000+0 10089-3 0 9993 2 39150 97.9325 60.5573 0018346 133.0488 227.2262 14.76540185681201 VNREDSAT 1 1 39160U 13021B 25349.96845373 .00000782 00000+0 15479-3 0 9999 2 39160 97.9375 45.1302 0001234 77.6344 282.4998 14.64928910673469 ARIRANG-5 (KOMPSAT-5) 1 39227U 13042A 25350.33466010 .00002387 00000+0 17472-3 0 9994 2 39227 97.6156 174.5873 0003485 48.2741 311.8783 15.04519964676363 SKYSAT-A 1 39418U 13066C 25349.71958517 .00002177 00000+0 13125-3 0 9998 2 39418 97.4110 39.8378 0020872 225.6656 134.2864 15.11626206660750 DUBAISAT-2 1 39419U 13066D 25349.96516429 .00004390 00000+0 28595-3 0 9994 2 39419 97.4451 340.2734 0010152 310.0989 49.9349 15.08394998658755 GPM-CORE 1 39574U 14009C 25349.92832205 .00005994 00000+0 13375-3 0 9994 2 39574 64.9730 202.0036 0009650 246.3399 113.6729 15.44516170669507 SENTINEL-1A 1 39634U 14016A 25350.00757951 .00000320 00000+0 77490-4 0 9991 2 39634 98.1807 355.2011 0001242 83.7808 276.3534 14.59200984623306 KAZEOSAT 1 1 39731U 14024A 25349.98189821 .00000176 00000+0 66638-4 0 9999 2 39731 98.3432 61.8163 0001140 95.8699 264.2621 14.42064561612152 ALOS-2 1 39766U 14029A 25349.98942623 .00000568 00000+0 82994-4 0 9997 2 39766 97.9224 84.7889 0001378 97.0355 263.1013 14.79466887624499 KAZEOSAT 2 1 40010U 14033A 25349.85903220 .00000981 00000+0 12040-3 0 9995 2 40010 97.5508 194.0123 0007905 195.6901 164.4071 14.85174101621748 HODOYOSHI-4 1 40011U 14033B 25349.97230843 .00002214 00000+0 24875-3 0 9993 2 40011 97.5416 178.6966 0023294 189.5003 170.5777 14.87498527621568 DEIMOS-2 1 40013U 14033D 25349.93116644 .00002033 00000+0 20093-3 0 9990 2 40013 97.6062 225.6259 0001015 108.9867 251.1463 14.92986754610371 HODOYOSHI-3 1 40015U 14033F 25349.92465457 .00001318 00000+0 16000-3 0 9998 2 40015 97.6196 155.6212 0031985 236.9798 122.8343 14.84818696620424 SPOT 7 1 40053U 14034A 25349.96140216 .00000578 00000+0 12793-3 0 9990 2 40053 98.0906 51.9628 0001570 86.3680 273.7701 14.60738894610386 SKYSAT-B 1 40072U 14037D 25349.84870128 .00001437 00000+0 16585-3 0 9991 2 40072 98.3610 293.7189 0006378 141.1261 219.0413 14.87339202618702 WORLDVIEW-3 (WV-3) 1 40115U 14048A 25349.94031395 .00001086 00000+0 13190-3 0 9996 2 40115 97.8614 62.1804 0005031 174.3460 185.7813 14.85519525614710 GAOFEN-2 1 40118U 14049A 25349.98519079 .00000620 00000+0 87780-4 0 9994 2 40118 98.0384 49.1593 0008652 103.8455 256.3721 14.80615107612127 YAOGAN-21 1 40143U 14053A 25349.96586573 .00004240 00000+0 17919-3 0 9996 2 40143 97.1760 33.1387 0009531 31.3842 328.7962 15.23714289627035 YAOGAN-22 1 40275U 14063A 25349.90217561 -.00000014 00000+0 87558-4 0 9998 2 40275 100.7422 133.3663 0005970 240.4616 119.5901 13.15522774535719 ASNARO 1 40298U 14070A 25349.96593584 .00005845 00000+0 27784-3 0 9999 2 40298 97.3649 65.8334 0005592 113.2305 246.9519 15.19562397616184 YAOGAN-24 1 40310U 14072A 25349.93021127 .00001054 00000+0 15981-3 0 9996 2 40310 98.1214 121.0397 0014866 128.2599 231.9950 14.76185289596683 CBERS 4 1 40336U 14079A 25350.00101933 .00000052 00000+0 32617-4 0 9998 2 40336 98.3309 47.9063 0001707 108.2894 251.8478 14.35518749577670 YAOGAN-26 1 40362U 14088A 25349.98456231 .00011396 00000+0 29293-3 0 9994 2 40362 97.0643 350.5428 0005712 19.9653 340.1816 15.39415898609440 SMAP 1 40376U 15003A 25349.96891239 .00000538 00000+0 11333-3 0 9998 2 40376 98.1290 354.6462 0001210 90.7980 269.3361 14.63349093580823 KOMPSAT-3A 1 40536U 15014A 25349.98549279 .00014866 00000+0 32715-3 0 9990 2 40536 97.6783 324.5117 0005158 119.5200 240.6562 15.44067006593454 SENTINEL-2A 1 40697U 15028A 25349.92796780 -.00000004 00000+0 14997-4 0 9991 2 40697 98.5689 62.4147 0001060 87.7277 272.4027 14.30814075547522 GAOFEN-8 1 40701U 15030A 25349.95653120 .00016509 00000+0 43318-3 0 9997 2 40701 97.6903 168.2534 0011682 127.0126 233.2189 15.38663288583200 CARBONITE 1 (CBNT-1) 1 40718U 15032D 25349.95548082 .00002032 00000+0 25722-3 0 9992 2 40718 97.6401 170.8576 0014615 170.5501 189.5991 14.82763104562189 YAOGAN-27 1 40878U 15040A 25349.96989326 -.00000156 00000+0 -30034-3 0 9998 2 40878 100.1010 339.4439 0007626 278.7602 81.2648 13.16059240493567 GAOFEN-9 01 1 40894U 15047A 25349.97105774 .00001141 00000+0 14777-3 0 9990 2 40894 97.6540 28.7870 0028139 23.9619 336.2898 14.82430207553040 YAOGAN-28 1 41026U 15064A 25349.98588937 .00006319 00000+0 25999-3 0 9994 2 41026 97.2802 127.6863 0012503 115.5507 244.7025 15.24410808562742 YAOGAN-29 1 41038U 15069A 25349.99104190 .00000357 00000+0 50681-4 0 9991 2 41038 98.0225 13.1736 0000149 204.2946 155.8260 14.82887133543471 KENT RIDGE 1 1 41167U 15077B 25349.91952044 .00003834 00000+0 13227-3 0 9991 2 41167 14.9783 187.5467 0008477 175.9141 184.1251 15.21663173553128 GAOFEN-4 1 41194U 15083A 25350.07814778 -.00000313 00000+0 00000+0 0 9999 2 41194 0.1787 81.6902 0002739 91.9856 45.1161 1.00279401 36695 JASON-3 1 41240U 16002A 25349.93468065 -.00000030 00000+0 12911-3 0 9994 2 41240 66.0393 151.1070 0007168 270.9908 89.0290 12.87626716463650 SENTINEL-3A 1 41335U 16011A 25349.89694857 .00000129 00000+0 71564-4 0 9992 2 41335 98.6312 54.8650 0000933 91.8173 268.3114 14.26731908511923 ZIYUAN 3-2 (ZY 3-2) 1 41556U 16033A 25350.27195277 .00005103 00000+0 23217-3 0 9995 2 41556 97.4043 64.3816 0010775 232.6392 127.3863 15.21108786530170 CARTOSAT-2C 1 41599U 16040A 25349.95811845 .00004942 00000+0 23804-3 0 9991 2 41599 97.4772 47.1759 0011415 52.7810 307.4464 15.19148416525891 SKYSAT-C1 1 41601U 16040C 25349.85484170 .00007355 00000+0 23556-3 0 9996 2 41601 96.9827 26.6932 0002005 6.0946 354.0321 15.32649899529757 LAPAN-A3 1 41603U 16040E 25349.96155081 .00003436 00000+0 11498-3 0 9994 2 41603 97.1426 347.4008 0009336 321.1522 38.9048 15.31579440526754 BIROS 1 41604U 16040F 25349.05569701 .00145956 97144-5 47664-3 0 9992 2 41604 97.0680 20.5828 0003655 143.3286 216.8239 15.90659584529096 GAOFEN-3 1 41727U 16049A 25349.99572586 .00000101 00000+0 43779-4 0 9990 2 41727 98.4043 355.5327 0001328 60.3551 299.7771 14.42214743492240 SKYSAT-C4 1 41771U 16058B 25349.52259680 .00010328 00000+0 24142-3 0 9999 2 41771 96.9376 14.5751 0001754 133.0259 227.1136 15.42334292517106 SKYSAT-C5 1 41772U 16058C 25349.55253043 .00009329 00000+0 28373-3 0 9999 2 41772 97.0769 33.1875 0002817 269.3508 90.7413 15.34228407515594 SKYSAT-C2 1 41773U 16058D 25349.80558577 .00008305 00000+0 22898-3 0 9997 2 41773 97.0363 14.2028 0003915 26.9287 333.2161 15.37343111516832 SKYSAT-C3 1 41774U 16058E 25349.82226111 .00013709 00000+0 29725-3 0 9996 2 41774 96.9302 23.4252 0001771 107.7930 252.3513 15.44509266517731 ALSAT 1B 1 41785U 16059C 25350.00039498 .00000524 00000+0 90802-4 0 9997 2 41785 97.7820 1.6500 0010782 94.1171 266.1269 14.72079717493624 PATHFINDER 1 1 41787U 16059E 25349.92790680 .00000780 00000+0 14554-3 0 9998 2 41787 97.8138 352.5536 0029975 71.5313 288.9147 14.67326757492839 SCATSAT 1 1 41790U 16059H 25349.76899003 .00001555 00000+0 21276-3 0 9993 2 41790 98.1462 46.4771 0056354 118.4204 242.2702 14.78946647 74472 GOKTURK 1A 1 41875U 16073A 25349.99146123 .00000395 00000+0 86717-4 0 9999 2 41875 98.1429 242.3133 0001251 79.1749 280.9593 14.62783919482048 RESOURCESAT-2A 1 41877U 16074A 25350.00560419 -.00000105 00000+0 -27571-4 0 9998 2 41877 98.7756 59.8423 0001216 239.3955 120.7102 14.21600383468276 CARTOSAT-2D 1 41948U 17008A 25349.99229833 .00003467 00000+0 16750-3 0 9991 2 41948 97.4389 47.4407 0004930 151.8986 208.2516 15.19291817489760 SENTINEL-2B 1 42063U 17013A 25349.99070409 -.00000091 00000+0 -18165-4 0 9994 2 42063 98.5714 62.3909 0001158 91.8927 268.2388 14.30816621458445 CARTOSAT-2E 1 42767U 17036C 25349.94286885 .00004308 00000+0 20775-3 0 9994 2 42767 97.4561 47.4878 0002082 221.1388 138.9690 15.19233439470327 FORMOSAT-5 1 42920U 17049A 25349.94509773 .00000200 00000+0 61705-4 0 9999 2 42920 98.2451 64.2006 0009799 284.4672 75.5435 14.51007308440100 SENTINEL-5P 1 42969U 17064A 25349.79772966 .00000078 00000+0 57879-4 0 9998 2 42969 98.7787 288.3547 0000996 88.7839 271.3451 14.19518328423545 SKYSAT-C11 1 42987U 17068A 25349.91260576 .00017192 00000+0 33526-3 0 9992 2 42987 97.4135 127.4828 0001139 104.2788 255.8588 15.47585629454801 SKYSAT-C10 1 42988U 17068B 25349.86460470 .00008461 00000+0 27513-3 0 9990 2 42988 97.4254 120.7238 0005417 94.8783 265.3078 15.32132279454271 SKYSAT-C9 1 42989U 17068C 25349.88408161 .00009824 00000+0 28086-3 0 9992 2 42989 97.4184 120.1623 0010608 77.5516 282.6914 15.36134031454561 SKYSAT-C8 1 42990U 17068D 25349.89577499 .00008968 00000+0 28382-3 0 9993 2 42990 97.4276 119.9093 0001367 333.5315 26.5857 15.32994050454197 SKYSAT-C7 1 42991U 17068E 25349.92323777 .00008767 00000+0 28254-3 0 9991 2 42991 97.4283 120.9755 0007469 46.9629 313.2237 15.32396675454260 SKYSAT-C6 1 42992U 17068F 25349.90375787 .00008110 00000+0 26859-3 0 9999 2 42992 97.4317 121.3919 0005133 73.9820 286.1986 15.31557041454247 CARTOSAT-2F 1 43111U 18004A 25349.97559183 .00004499 00000+0 21631-3 0 9994 2 43111 97.4318 47.5613 0001198 143.5219 216.6098 15.19310647439515 GAOFEN-1 02 1 43259U 18031A 25349.97787367 .00000505 00000+0 80155-4 0 9995 2 43259 98.0807 47.7684 0001923 205.1227 154.9890 14.76421962415667 GAOFEN-1 03 1 43260U 18031B 25350.02391340 .00000876 00000+0 13346-3 0 9995 2 43260 98.0795 47.6910 0001819 306.0436 54.0604 14.76443626415667 GAOFEN-1 04 1 43262U 18031D 25349.99953250 .00001087 00000+0 16373-3 0 9993 2 43262 98.0808 47.8364 0000936 59.1670 300.9631 14.76458623415659 SENTINEL-3B 1 43437U 18039A 25349.94029387 .00000128 00000+0 71043-4 0 9996 2 43437 98.6266 55.0798 0001629 98.6146 261.5219 14.26735179397994 GAOFEN-5 01 1 43461U 18043A 25349.86862652 .00000436 00000+0 10021-3 0 9999 2 43461 98.4329 312.8905 0000748 326.6717 33.4436 14.60413185404930 GAOFEN-6 1 43484U 18048A 25349.97085407 .00001118 00000+0 16715-3 0 9990 2 43484 97.8031 54.1292 0013076 54.1321 306.1102 14.76574749406354 GAOFEN-11 01 1 43585U 18063A 25349.98324031 .00010948 00000+0 20172-3 0 9992 2 43585 97.1564 52.8903 0004138 296.5942 63.4885 15.49312794411925 ICESAT-2 1 43613U 18070A 25349.87944069 .00008127 00000+0 29544-3 0 9997 2 43613 92.0049 241.5840 0002575 131.0432 229.1040 15.28239046404466 HYSIS 1 43719U 18096A 25349.95964100 .00001257 00000+0 17872-3 0 9997 2 43719 98.0099 52.9215 0001239 54.8343 305.2984 14.78656651380345 KAZSTSAT 1 43783U 18099AB 25349.53775930 .00000652 00000+0 57884-4 0 9992 2 43783 97.4555 24.6031 0005868 317.8732 42.2040 14.99359975383788 SAUDISAT 5A 1 43831U 18102A 25350.00464843 .00004744 00000+0 18866-3 0 9995 2 43831 97.3356 50.1329 0011643 66.2019 294.0439 15.25699560387729 SAUDISAT 5B 1 43833U 18102C 25349.99438340 .00004733 00000+0 18626-3 0 9998 2 43833 97.3450 52.8672 0012367 68.4849 291.7706 15.26050300387832 GAOFEN-10R 1 44622U 19066A 25349.96482293 .00001584 00000+0 20256-3 0 9991 2 44622 98.0281 297.4836 0007671 32.5892 327.5793 14.82803296335221 CARTOSAT-3 1 44804U 19081A 25349.98957008 .00003450 00000+0 16691-3 0 9995 2 44804 97.4584 49.5323 0014082 72.7318 287.5456 15.19179712335650 GAOFEN-12 01 1 44819U 19082A 25349.98693303 .00000495 00000+0 71003-4 0 9992 2 44819 97.8125 356.1827 0001501 215.1771 144.9342 14.80661193326987 CSG-1 1 44873U 19092A 25350.43541770 .00000717 00000+0 96665-4 0 9993 2 44873 97.8809 171.7039 0001487 86.8831 273.2552 14.82145521324403 NEMO-HD 1 46277U 20061F 25350.00742169 .00008593 00000+0 21460-3 0 9999 2 46277 97.2215 49.0639 0001670 53.7909 306.3492 15.40399089293742 SENTINEL-6A 1 46984U 20086A 25349.84127808 -.00000035 00000+0 11368-3 0 9998 2 46984 66.0390 155.8659 0007716 269.2652 90.7479 12.80930731236842 GAOFEN-12 02 1 48079U 21026A 25349.98477483 .00000499 00000+0 71752-4 0 9999 2 48079 97.9852 343.9755 0003586 94.5873 265.5749 14.80679011254651 PLEIADES NEO 3 1 48268U 21034A 25350.51029325 .00000866 00000+0 11659-3 0 9994 2 48268 97.8948 62.8972 0001310 96.3461 263.7901 14.81671053250600 PLEIADES NEO 4 1 49070U 21073E 25350.00378905 -.00000297 00000+0 -31094-4 0 9990 2 49070 97.8947 62.3935 0001325 89.7120 270.4244 14.81670710234245 LANDSAT 9 1 49260U 21088A 25349.91824983 .00000412 00000+0 10153-3 0 9996 2 49260 98.2092 57.9832 0001140 89.8233 270.3096 14.57101186224319 CSG-2 1 51444U 22008A 25348.91642383 .00000352 00000+0 50770-4 0 9990 2 51444 97.8808 170.2065 0001469 82.0603 278.0777 14.82165966209298 GAOFEN-12 03 1 52912U 22069A 25349.95024895 .00001127 00000+0 15709-3 0 9998 2 52912 97.8485 237.2252 0002161 57.2465 302.8955 14.79618837187512 SWOT 1 54754U 22173A 25349.92245845 .00000090 00000+0 62884-4 0 9992 2 54754 77.6107 282.6933 0000358 104.4183 255.7008 14.00167371153506 GAOFEN-12 04 1 57654U 23123A 25349.98581134 .00001272 00000+0 17621-3 0 9991 2 57654 97.9123 265.6936 0001271 74.4983 285.6369 14.79709536125539 PARS 1 1 59065U 24039Q 25349.98007672 .00009308 00000+0 22689-3 0 9994 2 59065 97.4631 320.9819 0012376 62.5003 297.7500 15.41050537100387 RESURS-P 4 1 59371U 24061A 25349.97313166 .00003393 00000+0 11190-3 0 9999 2 59371 97.2544 296.2368 0001271 54.8101 305.3260 15.32112121 95703 LEGION 1 1 59625U 24081A 25349.89911695 .00004062 00000+0 21190-3 0 9990 2 59625 97.5215 64.5106 0003803 303.8835 56.2036 15.16513038 89758 LEGION 2 1 59626U 24081B 25349.93211936 .00003586 00000+0 18735-3 0 9998 2 59626 97.5218 64.6307 0005621 280.0572 80.0027 15.16526622 89769 ALOS-4 (DAICHI-4) 1 60182U 24123A 25350.00875543 .00001592 00000+0 22001-3 0 9990 2 60182 97.9226 84.8093 0001430 100.3975 259.7397 14.79474959 78791 LEGION 3 1 60452U 24146A 25349.85354391 .00004295 00000+0 23415-3 0 9992 2 60452 45.0021 293.4392 0015248 215.5515 144.4348 15.15797043 74200 LEGION 4 1 60453U 24146B 25349.59041155 .00004095 00000+0 22381-3 0 9994 2 60453 45.0399 26.6098 0009231 325.7639 34.2644 15.15857492 73012 SENTINEL-2C 1 60989U 24157A 25349.81600003 .00000133 00000+0 67533-4 0 9996 2 60989 98.5681 62.2543 0001234 97.0546 263.0777 14.30818743 66760 IONOSFERA-M 1 1 61735U 24199A 25349.92211656 .00000057 00000+0 45056-4 0 9997 2 61735 98.7402 219.7459 0000814 17.7991 342.3215 14.22714696101642 IONOSFERA-M 2 1 61736U 24199B 25349.95675833 .00000049 00000+0 41540-4 0 9997 2 61736 98.7401 219.6927 0001718 106.4372 253.6994 14.22716879104774 BIOMASS 1 63772U 25090A 25349.75401573 .00001110 00000+0 20427-3 0 9996 2 63772 98.0695 174.7197 0001146 82.2368 277.8967 14.67534088 33784 GOSAT-GW (IBUKI GW) 1 64694U 25141A 25349.91883426 .00000931 00000+0 17258-3 0 9994 2 64694 98.0428 285.3740 0001434 84.7983 275.3385 14.67559128 24964 IONOSFERA-M 3 1 64876U 25155A 25349.95099765 .00000080 00000+0 55953-4 0 9990 2 64876 98.5786 311.7262 0002155 54.9797 305.1583 14.21441875 20376 IONOSFERA-M 4 1 64877U 25155B 25349.91567037 .00000079 00000+0 55738-4 0 9998 2 64877 98.5785 311.6114 0001532 60.1709 299.9621 14.21442966 20365 MICROCARB 1 64899U 25156A 25349.77741537 .00000687 00000+0 11697-3 0 9996 2 64899 98.0024 65.0741 0017320 135.5274 224.7327 14.72061935 20988 CO3D 3 1 64900U 25156B 25347.69902622 .00003358 00000+0 15818-3 0 9999 2 64900 97.4344 64.0523 0001384 93.9049 266.2345 15.20200330 21357 CO3D 4 1 64901U 25156C 25350.00299420 .00004550 00000+0 21322-3 0 9996 2 64901 97.4346 66.3236 0000974 186.2126 173.9098 15.20194933 21701 CO3D 2 1 64902U 25156D 25346.87600341 .00002342 00000+0 10503-3 0 9991 2 64902 97.4215 63.2016 0020386 351.3096 8.7784 15.22031437 21224 CO3D 1 1 64903U 25156E 25349.96963159 .00004414 00000+0 20686-3 0 9999 2 64903 97.4346 66.1893 0000917 72.6045 287.5290 15.20209256 21694 SENTINEL-6B 1 66514U 25264A 25346.25094248 -.00000017 00000+0 18864-3 0 9993 2 66514 66.0385 163.4531 0007847 270.1745 89.8371 12.81479576 3220